CANX-5

Last updated on Mon Sep 21 2026 00:03:44 GMT+0000 (Coordinated Universal Time)

1 40056U 14034D 26263.45849227 .00000520 00000+0 73679-4 0 9999 2 40056 98.2957 142.2488 0013992 66.9779 293.2906 14.81417917649445
UTC large
Height (km)
Speed (km/s)
/
Latitude / Longitude
Inclination (degrees)
Orbital Period (minutes)
Azimuth
Elevation
Range (km)
Doppler Factor

Next 0 passes for location: London (51.5072 / 0.1276)

No passes found over London.
CANX-5